This demonstration page uses our WeatherBlox Daily Observations layout. Learn more.

Left ArrowRight Arrow

Hourly Observations for June 8, 2018

Temp ( °F °C ) Dew Point ( °F °C ) Humidity (%) Winds ( mph kmh ) Pressure ( in mb ) Visibility ( mi km ) Precip ( " mm )
12:53 am 00:53 Clear 70 21.1 64 17.8 82 82 SSE 5 7 29.97 1015 10 16 0.00 0.00
1:53 am 01:53 Clear 70 21.1 64 17.8 82 82 SE 6 9 29.95 1014 10 16 0.00 0.00
2:53 am 02:53 Clear 69 20.6 64 17.8 84 84 SSE 3 6 29.96 1015 10 16 0.00 0.00
3:53 am 03:53 Clear 69 20.6 64 17.8 84 84 SSE 5 7 29.95 1014 10 16 0.00 0.00
4:53 am 04:53 Clear 68 20 64 17.8 87 87 S 5 7 29.96 1015 10 16 0.00 0.00
5:53 am 05:53 Clear 65 18.3 63 17.2 93 93 Calm 29.98 1015 7 11 0.00 0.00
6:53 am 06:53 Sunny 68 20 64 17.8 87 87 Calm 30.00 1016 8 13 0.00 0.00
7:53 am 07:53 Sunny 70 21.1 65 18.3 84 84 S 6 9 30.00 1016 10 16 0.00 0.00
8:53 am 08:53 Sunny 73 22.8 65 18.3 76 76 S 10 17 29.98 1015 10 16 0.00 0.00
9:53 am 09:53 Sunny 74 23.3 66 18.9 76 76 S 8 13 29.99 1016 10 16 0.00 0.00
10:53 am 10:53 Sunny 77 25 65 18.3 66 66 S 10 17 29.98 1015 10 16 0.00 0.00
11:53 am 11:53 Sunny 79 26.1 66 18.9 65 65 S 10 17 29.97 1015 10 16 0.00 0.00
12:53 pm 12:53 Sunny 81 27.2 66 18.9 61 61 SE 12 19 29.97 1015 10 16 0.00 0.00
1:53 pm 13:53 Sunny 83 28.3 66 18.9 57 57 ESE 13 20 29.95 1014 10 16 0.00 0.00
2:53 pm 14:53 Sunny 86 30 63 17.2 46 46 SSE 12 19 29.93 1014 10 16 0.00 0.00
3:53 pm 15:53 Sunny 87 30.6 64 17.8 46 46 SE 15 24 29.92 1013 10 16 0.00 0.00
4:53 pm 16:53 Sunny 88 31.1 64 17.8 45 45 SSE 14 22 29.91 1013 10 16 0.00 0.00
5:53 pm 17:53 Sunny 87 30.6 65 18.3 48 48 SE 13 20 29.91 1013 10 16 0.00 0.00
6:53 pm 18:53 Sunny 88 31.1 67 19.4 50 50 SSE 10 17 29.89 1012 10 16 0.00 0.00
7:53 pm 19:53 Mostly Sunny 87 30.6 67 19.4 51 51 SSE 9 15 29.88 1012 10 16 0.00 0.00
8:53 pm 20:53 Sunny 83 28.3 67 19.4 59 59 SE 8 13 29.88 1012 10 16 0.00 0.00
9:53 pm 21:53 Clear 82 27.8 65 18.3 56 56 SE 9 15 29.88 1012 10 16 0.00 0.00
10:53 pm 22:53 Clear 80 26.7 66 18.9 62 62 SE 12 19 29.90 1013 10 16 0.00 0.00
11:53 pm 23:53 Clear 78 25.6 66 18.9 67 67 SSE 9 15 29.89 1012 10 16 0.00 0.00

Powered by AerisWeather